Theta_e
310 311 312 311 312 313 312 315 318 317 318 318 319 317 317 317 319 315 306 314 318 326 324 316 314 312 312 309 311 308 298 292 294 291 293 295 303 308 310 308 309 309 310 323 324
309 311 312 313 313 314 314 316 318 317 317 316 318 317 317 318 312 307 316 320 323 326 315 313 309 310 306 306 306 305 298 297 295 293 295 296 298 305 305 305 310 314 318 323 322
308 311 311 313 313 313 316 317 317 317 316 313 317 317 318 317 306 305 319 321 323 323 316 314 313 309 304 304 303 302 298 295 295 296 296 298 298 301 304 300 308 313 315 319 321
308 310 311 312 313 315 317 316 316 316 315 314 315 317 319 312 292 308 321 319 324 318 314 313 310 305 302 300 302 297 298 297 298 297 297 296 299 298 300 299 309 315 315 315 318
308 309 310 311 312 315 315 315 314 314 315 313 314 318 313 301 300 309 318 319 315 311 311 310 307 305 301 301 300 297 296 297 298 298 297 299 296 298 298 301 309 313 314 314 314
307 309 310 310 312 314 316 315 314 315 315 312 317 318 308 295 309 311 312 315 313 309 308 311 308 307 302 300 299 298 297 296 297 296 297 296 295 296 298 302 306 310 309 311 312
307 308 309 311 312 314 315 316 315 317 317 317 317 313 303 299 308 310 313 313 312 309 306 307 310 306 304 299 302 299 295 295 295 295 295 296 292 294 299 302 303 304 304 307 309
306 307 309 311 312 314 315 316 317 317 317 317 317 307 298 308 309 309 314 310 309 309 309 311 311 306 302 303 301 296 296 292 296 295 295 294 289 293 299 300 300 300 300 301 302
306 307 309 310 312 313 315 316 317 318 317 316 309 301 296 311 305 308 309 307 307 308 307 310 308 302 300 296 293 295 291 290 294 297 294 293 291 294 298 299 300 298 299 300 301
306 307 308 309 311 312 313 315 316 315 313 311 307 299 302 300 305 307 309 308 304 303 302 301 298 295 294 294 288 290 290 290 291 295 293 290 291 293 296 297 298 299 299 299 300
305 306 308 309 310 311 307 302 299 298 301 296 297 298 300 304 307 305 306 305 303 299 293 295 292 288 293 295 295 294 292 289 292 295 291 291 291 293 295 294 295 296 298 299 300
305 306 308 309 309 308 301 296 296 297 293 302 299 299 302 303 300 302 306 299 297 292 294 291 287 292 297 297 295 294 292 289 293 293 292 292 291 295 295 294 296 297 297 299 299
305 306 307 308 307 300 295 296 301 301 292 296 300 298 299 301 297 297 301 298 294 293 292 288 291 295 295 292 291 289 290 289 290 291 291 289 287 289 293 297 296 298 299 299 300
305 305 307 307 300 296 293 297 299 300 281 289 294 298 298 297 294 301 301 298 295 291 292 292 294 293 291 290 290 286 291 291 291 287 281 289 279 286 289 291 294 296 296 296 298
304 305 306 304 294 292 295 296 297 295 268 290 293 303 297 293 294 296 301 297 292 292 292 289 289 290 289 290 292 289 292 289 288 286 284 283 281 285 288 289 292 294 296 297 297
303 304 303 297 294 294 297 297 293 277 269 284 292 291 289 292 293 295 295 297 296 291 292 291 293 292 292 292 293 293 290 289 286 284 274 281 280 282 285 289 292 294 295 296 296
302 302 298 297 290 296 296 291 277 271 285 282 286 289 287 286 289 290 289 288 287 284 284 288 289 291 293 290 292 290 286 277 274 273 275 282 281 284 290 292 292 293 294 295 295
302 299 296 294 293 295 292 283 267 273 281 288 287 288 284 285 286 287 286 284 287 286 284 283 281 289 292 291 288 287 286 279 273 274 277 283 279 285 291 291 292 293 293 294 294
298 289 288 291 294 294 287 271 270 278 286 286 286 280 281 286 285 284 283 283 286 287 283 281 282 288 290 291 292 286 283 288 282 276 276 279 282 287 288 289 289 290 290 292 293
287 285 286 292 293 291 281 276 279 286 288 287 280 282 278 283 282 281 281 285 285 288 287 284 280 285 288 290 289 288 290 282 281 271 272 277 278 281 285 287 288 289 289 290 291
285 281 286 291 291 287 278 273 283 288 288 285 282 282 282 283 282 281 283 285 286 286 287 285 283 281 287 284 284 285 284 285 284 281 276 274 278 285 286 287 287 289 289 290 290
281 272 287 289 280 280 281 282 286 285 288 286 286 285 283 284 281 281 282 284 288 288 284 286 283 278 281 286 287 286 284 285 280 278 279 279 281 288 287 287 287 288 288 288 290
278 275 286 285 273 278 274 281 282 284 285 285 284 286 286 284 279 283 283 288 289 287 285 287 277 270 277 280 283 283 285 287 286 284 281 277 280 288 287 287 287 288 289 289 289
277 271 275 277 269 277 274 273 275 284 284 285 285 286 284 283 285 280 284 288 289 288 294 291 282 279 275 278 280 281 283 285 285 282 282 282 284 289 290 288 290 292 288 289 289
274 269 274 270 271 272 275 275 276 275 281 284 283 284 283 275 278 280 284 285 289 290 288 287 275 278 281 282 282 282 282 282 281 284 280 283 284 288 290 290 291 291 290 290 288
275 274 272 270 276 276 276 270 275 278 280 278 275 283 284 279 281 279 284 285 285 286 284 287 278 281 277 283 282 280 283 283 283 283 283 283 282 290 292 291 290 291 290 288 289
280 280 278 277 275 273 273 275 276 280 280 281 281 279 279 282 282 284 284 284 283 281 280 279 280 272 275 278 276 274 278 282 284 285 284 280 286 290 289 289 289 287 289 289 290
Wind_Speed
19 18 15 7 5 6 5 17 11 14 10 3 5 3 3 5 7 7 2 2 4 7 7 5 1 0 3 4 3 3 5 3 4 4 4 1 5 3 1 6 3 3 2 8 14
19 19 17 15 12 14 19 27 12 17 14 2 6 5 5 6 4 2 2 4 6 8 4 4 4 3 5 3 5 6 3 5 2 0 3 2 5 5 4 2 3 3 4 10 13
19 21 20 19 15 16 12 12 12 16 17 5 9 9 7 5 3 4 7 8 3 4 1 2 1 5 6 1 5 3 2 4 2 2 1 4 4 1 9 1 4 12 12 7 10
18 18 19 18 20 24 15 16 13 15 16 7 11 10 10 3 5 4 8 2 3 3 1 2 4 5 5 6 3 5 4 2 1 3 2 3 5 4 2 2 4 9 6 4 8
18 18 18 16 17 19 12 14 12 16 12 4 13 7 5 1 3 7 6 3 2 1 4 3 5 4 6 6 4 4 2 4 4 7 6 5 4 4 3 2 4 9 7 8 6
18 19 19 16 16 18 15 11 12 14 13 9 7 8 4 6 6 9 3 3 7 6 5 5 4 5 7 4 5 2 5 3 4 4 4 4 2 2 4 4 4 5 7 7 8
17 19 19 17 16 16 13 13 8 12 12 7 4 4 9 2 6 8 6 5 4 4 6 3 4 6 4 6 2 3 5 3 5 3 4 2 1 5 5 7 7 6 5 7 9
16 17 18 18 16 14 11 11 7 11 7 2 7 4 4 5 6 7 5 7 8 5 6 6 8 8 4 4 5 5 5 2 2 1 2 4 6 2 5 8 8 7 6 5 5
18 18 17 17 18 14 12 8 3 8 4 5 4 2 3 9 6 7 4 5 3 5 7 4 7 4 4 5 5 5 3 1 2 3 3 2 5 4 4 5 7 7 8 7 7
18 18 17 17 17 14 8 4 5 1 2 4 3 6 6 4 5 7 6 7 9 5 6 9 6 4 5 4 3 4 3 0 3 1 2 1 10 0 5 6 8 8 8 8 10
17 18 17 15 15 14 7 4 5 7 11 3 2 4 3 6 4 7 6 5 6 9 4 4 7 3 5 3 4 6 4 2 3 2 1 6 8 9 8 6 10 11 11 13 15
17 18 17 15 13 7 6 5 3 2 6 9 4 5 3 3 6 10 7 6 5 4 4 7 5 0 4 4 7 6 4 1 2 2 2 5 10 13 9 12 16 17 16 17 11
16 17 17 17 5 8 5 4 3 3 6 6 3 4 4 6 4 7 5 1 5 5 6 6 3 1 5 5 6 3 3 1 2 3 1 7 9 5 5 12 9 17 16 15 18
17 17 16 18 6 1 6 8 6 3 7 6 7 4 3 2 5 3 4 2 4 4 3 5 3 3 5 4 4 2 2 2 2 4 2 4 8 7 4 8 8 13 11 12 12
16 18 13 14 2 5 5 2 3 1 7 6 5 4 7 7 1 7 4 5 4 4 3 1 1 3 3 3 3 2 3 2 2 2 3 4 1 11 4 7 8 9 12 13 13
14 17 9 6 4 2 7 5 1 9 0 4 4 3 4 6 4 4 5 5 1 4 4 2 1 1 3 2 3 3 4 7 5 3 3 4 5 9 3 4 6 3 6 9 9
12 11 7 3 3 7 5 4 8 7 4 3 2 3 3 3 3 3 2 3 3 4 2 1 1 0 2 4 3 6 5 3 6 4 5 1 3 11 11 11 7 10 11 7 8
11 9 5 3 4 6 4 8 7 5 5 2 2 3 3 1 3 4 3 1 1 3 2 4 3 5 3 5 6 5 6 5 5 3 4 2 7 10 7 5 6 7 8 8 6
5 3 3 5 6 4 6 6 8 7 6 7 4 5 1 1 3 4 1 2 3 5 5 4 4 2 2 2 7 4 4 4 2 1 1 6 7 10 7 8 6 9 5 8 7
3 3 3 8 7 5 7 3 2 3 3 3 4 3 5 4 4 4 4 3 3 8 1 2 1 1 2 2 1 5 6 3 2 2 6 5 5 8 7 6 9 8 7 8 6
4 4 3 9 3 5 4 6 4 3 1 3 2 3 3 5 6 5 6 3 4 1 3 2 3 3 2 4 8 3 3 2 4 5 4 4 7 7 6 4 6 9 7 8 8
4 3 4 3 6 3 3 1 5 0 3 2 3 4 6 5 3 3 5 4 5 5 6 6 3 3 9 2 3 3 3 6 5 5 4 3 14 4 8 6 4 10 8 8 6
4 0 4 3 5 1 5 3 3 2 3 0 1 1 2 6 2 5 4 3 3 5 6 4 2 2 9 7 2 6 5 5 2 1 9 8 14 1 2 6 5 6 8 7 5
4 3 5 5 1 9 6 3 3 1 1 1 2 3 3 1 2 3 3 2 3 2 4 5 5 7 7 4 1 3 6 8 8 9 19 17 25 30 16 11 13 16 9 9 6
3 5 3 4 3 5 4 5 6 5 1 2 1 5 6 2 2 3 2 2 4 6 3 3 3 1 4 4 1 6 9 9 9 19 16 22 21 25 23 8 9 8 10 10 8
7 6 3 3 3 8 6 8 10 4 9 5 6 9 7 7 7 7 5 4 2 4 4 3 2 3 4 6 8 18 15 13 15 16 16 19 23 22 28 12 14 17 10 10 12
2 2 5 7 4 6 7 8 11 8 6 6 9 5 4 9 6 4 2 3 3 6 4 4 2 2 10 3 7 17 10 16 16 21 14 20 25 24 24 22 16 9 7 11 12
Wind_Direction
2 359 359 13 27 326 311 299 187 153 120 161 85 48 353 308 304 254 209 322 57 308 282 266 216 191 75 70 50 94 68 144 167 159 161 327 113 53 59 89 54 0 37 120 134
5 1 5 10 16 3 322 300 131 134 124 69 345 346 318 311 259 112 338 52 33 280 239 198 109 72 61 30 22 66 87 165 135 219 162 71 88 121 102 100 68 112 83 120 137
7 360 2 12 8 339 341 129 103 114 116 102 327 328 313 301 256 344 355 42 277 281 40 292 118 81 74 350 27 29 115 162 64 90 61 110 77 74 125 181 219 162 140 135 147
6 3 5 12 12 346 106 91 100 94 105 84 293 307 305 259 177 293 352 21 283 281 200 106 26 64 75 76 25 100 49 104 120 6 75 88 119 75 41 304 177 121 119 120 152
6 1 11 6 13 357 58 89 101 95 90 133 265 298 300 238 36 323 341 331 305 36 77 82 49 101 99 98 97 77 109 54 90 71 65 80 51 135 99 40 84 125 140 152 151
1 5 6 2 16 4 17 84 95 101 126 193 254 287 270 68 310 324 346 351 26 43 55 24 99 88 82 74 71 89 90 82 30 56 65 97 107 67 202 139 129 158 167 167 170
2 5 1 5 2 1 1 38 63 111 124 190 259 294 54 21 328 316 8 8 8 26 76 23 93 67 128 93 144 94 78 54 36 3 53 123 312 239 156 156 171 187 204 182 183
4 358 0 5 359 356 12 36 86 104 129 117 252 278 66 314 325 354 339 38 36 39 82 83 79 87 62 117 57 67 59 80 352 105 27 65 274 265 161 157 195 196 212 223 240
1 1 3 1 355 353 9 43 66 112 145 209 268 179 52 320 21 318 15 71 49 38 46 62 65 69 42 86 67 38 133 171 310 202 108 139 264 357 157 184 212 217 222 232 244
357 354 5 2 355 359 352 355 321 21 99 351 304 58 18 344 328 326 338 57 60 39 27 40 48 62 31 60 180 155 118 318 263 352 69 231 266 263 204 209 230 229 236 239 240
357 357 358 4 3 15 13 8 19 6 34 64 56 64 17 314 333 353 354 31 36 52 65 22 71 123 164 81 69 103 75 54 301 356 183 245 264 268 209 220 234 231 225 231 236
360 357 350 356 17 32 44 58 28 22 51 25 46 45 17 343 46 350 12 70 54 72 31 35 67 246 125 54 87 71 89 345 287 4 185 314 272 257 204 215 217 222 223 226 221
359 357 355 345 8 47 71 44 330 327 97 10 37 45 332 14 47 344 8 20 86 62 60 89 329 106 117 75 68 51 113 212 197 350 54 327 281 265 278 230 222 230 226 224 216
355 2 4 341 50 192 92 323 334 352 91 346 343 19 351 349 58 283 5 38 47 123 103 87 330 78 70 73 108 50 314 80 80 46 298 39 291 301 302 285 238 246 238 235 220
357 358 12 49 328 37 294 308 271 90 75 321 339 293 342 79 197 352 319 15 56 83 79 114 84 131 138 150 119 199 47 78 105 72 26 345 39 273 347 301 272 249 240 237 215
3 3 6 34 71 246 301 301 51 46 216 331 321 20 54 15 30 329 19 36 98 75 45 80 272 100 146 96 111 99 52 39 48 62 17 249 141 282 239 230 307 281 268 247 222
355 18 47 12 343 319 318 12 41 99 283 302 40 51 61 39 51 45 60 51 113 102 144 79 225 215 132 91 53 76 69 338 0 6 236 155 213 256 273 262 230 269 290 280 225
351 21 21 82 315 337 23 42 82 225 210 135 130 66 97 103 23 44 57 136 285 82 119 163 304 178 188 170 171 169 151 160 235 223 267 100 243 246 225 265 268 250 267 303 260
8 4 27 338 339 70 58 44 209 206 167 145 71 95 311 112 118 73 43 247 251 198 181 149 267 345 144 145 141 182 167 176 56 73 12 229 288 298 326 316 289 278 293 282 281
78 57 345 327 323 65 76 232 233 266 110 95 127 155 164 186 122 146 183 222 249 208 329 225 290 195 9 109 29 158 163 96 18 256 258 275 271 244 295 324 328 329 303 293 273
58 65 270 337 355 50 151 213 231 283 354 127 123 127 228 176 163 166 188 252 218 345 160 157 122 300 63 198 179 135 189 148 159 172 225 312 263 217 233 272 271 288 291 301 294
97 64 310 14 57 331 151 129 338 235 11 64 114 127 185 174 151 213 219 228 175 160 158 206 160 208 230 234 15 326 268 165 173 233 233 254 262 209 242 265 297 285 299 295 293
94 200 330 62 139 204 348 315 331 13 320 24 211 351 9 171 163 211 201 288 210 163 169 186 289 23 334 357 74 202 193 219 290 133 237 241 265 153 281 318 305 288 296 304 299
104 85 334 47 69 136 152 222 207 223 218 296 117 40 40 297 35 210 223 338 59 28 21 146 175 181 187 195 142 247 219 217 204 235 250 245 267 278 271 301 301 294 282 278 259
69 228 185 204 259 138 133 148 162 164 304 196 232 203 167 135 32 236 275 305 14 337 64 89 204 195 254 260 265 244 249 252 229 247 247 262 255 273 276 256 264 276 278 295 297
138 143 2 162 118 116 184 214 176 181 149 216 167 200 188 178 183 194 173 221 212 15 49 22 280 46 285 297 269 267 271 267 260 261 268 267 277 268 291 282 273 274 297 284 274
167 75 105 160 153 117 208 186 197 156 213 173 180 143 197 220 172 131 115 109 181 163 142 139 177 109 273 344 323 270 226 242 254 248 250 258 261 277 275 280 279 290 262 265 277